Regional Weather Roundup
Issued by NWS

Home | Current Version | Previous Version | Text Only | Print | Product List | Glossary On
Versions: 1 2 3 4 5 6 7 8 9 10 11 12 13 14 15 16 17 18 19 20 21 22 23 24 25 26 27 28
000
ASUS45 KPSR 310710
RWRAZ

ARIZONA HOURLY REGIONAL WEATHER ROUNDUP
NATIONAL WEATHER SERVICE PHOENIX AZ
1200 AM MST SAT JUL 31 2021

NOTE: FAIR INDICATES FEW OR NO CLOUDS BELOW 12,000 FEET WITH NO
SIGNIFICANT WEATHER AND/OR OBSTRUCTIONS TO VISIBILITY.

AZZ001>003-036-310800-
NORTHWEST ARIZONA

CITY           SKY/WX    TMP DP  RH WIND       PRES   REMARKS
BULLHEAD CITY  PTCLDY    91  61  35 CALM      29.91R
KINGMAN        CLEAR     72  61  68 S3        30.13S
$$

AZZ004>008-015-016-018-310800-
NORTH CENTRAL ARIZONA

CITY           SKY/WX    TMP DP  RH WIND       PRES   REMARKS
GRAND CANYON   PTCLDY    54  54 100 NE3       30.36S
WILLIAMS       MOCLDY    59  55  88 S5        30.37S
PRESCOTT       PTCLDY    66  60  81 S3        30.26R
FLAGSTAFF      MOCLDY    54  53  97 CALM      30.39S
PAYSON         MOCLDY    68  59  73 E3        30.28R
PAGE           CLOUDY    81  55  40 CALM      30.17S
$$

AZZ009>014-017-310800-
NORTHEAST ARIZONA

CITY           SKY/WX    TMP DP  RH WIND       PRES   REMARKS
WINSLOW        PTCLDY    70  58  65 W6        30.25R
SAINT JOHNS    CLOUDY    66  60  81 CALM      30.29S
WINDOW ROCK    PTCLDY    60  52  74 CALM      30.38S
SHOW LOW       CLOUDY    64  55  72 S5        30.37S
$$

AZZ540-542>544-546-548-310800-
GREATER PHOENIX AREA

CITY           SKY/WX    TMP DP  RH WIND       PRES   REMARKS
PHOENIX        TSTM      80  71  74 S18G35    30.02R
BUCKEYE          N/A     82  70  65 SE13      29.99R
LUKE AFB       CLOUDY    83  67  58 S18       29.97R
DEER VALLEY    TSTM      79  69  71 SE8       30.02R
SCOTTSDALE     LGT RAIN  79  71  76 SE13G22   30.06R
MESA-FALCON    LGT RAIN  78  71  79 S12       30.05R
MESA-GATEWAY   LGT RAIN  77  72  83 SW13      30.06R
$$

AZZ539-553-310800-
SOUTHWEST MARICOPA COUNTY AND PINAL COUNTY

CITY           SKY/WX    TMP DP  RH WIND       PRES   REMARKS
CASA GRANDE    CLOUDY    76  70  82 SW14      30.06F
GILA BEND      FAIR      80  74  81 E13       30.00R
$$

AZZ503-504-507>509-310800-
SOUTHEAST ARIZONA

CITY           SKY/WX    TMP DP  RH WIND       PRES   REMARKS
TUCSON         CLOUDY    72  68  87 SW5       30.11F
DAVIS-MONTHAN  CLOUDY    71  68  90 CALM      30.10S
NOGALES        MOCLDY    68  66  93 CALM      30.18R
SIERRA VISTA   PTCLDY    68  61  77 CALM      30.23R
SAFFORD        PTCLDY    74  69  85 CALM      30.10R
$$

AZZ532-310800-
SOUTHWEST ARIZONA

CITY           SKY/WX    TMP DP  RH WIND       PRES   REMARKS
YUMA           CLOUDY    82  73  74 SW7       29.92R
$$

CAZ041-043-047-048-061-525>527-560>570-310800-
SOUTHERN CALIFORNIA

CITY           SKY/WX    TMP DP  RH WIND       PRES   REMARKS
DOWNTOWN L.A.  PTCLDY    65  59  81 CALM      29.99S
L.A. AIRPORT   MOCLDY    63  60  90 W5        29.99S
SAN DIEGO      MOCLDY    69  63  81 N5        30.01S
BURBANK        PTCLDY    68  58  70 E5        29.99S
ONTARIO        MOCLDY    76  57  51 SW3       30.00R
RIVERSIDE      MOCLDY    74  56  53 SW3       30.00R
PALM SPRINGS   PTCLDY    88  67  49 W5        29.95S
EL CENTRO NAS  MOCLDY    85  65  51 W8        29.91S
IMPERIAL       MOCLDY    83  67  58 W5        29.89R
BLYTHE         CLOUDY    86  66  51 SW12      29.92R
NEEDLES        MOCLDY    93  58  30 SW7       29.93R
$$

NVZ020-UTZ003-310800-
SOUTHERN NEVADA-UTAH

CITY           SKY/WX    TMP DP  RH WIND       PRES   REMARKS
LAS VEGAS      CLOUDY    84  61  45 S6        30.02R
SALT LAKE CITY MOCLDY    77  60  55 N6        30.15S
$$

NMZ009-TXZ055-310800-
NEW MEXICO-WEST TEXAS

CITY           SKY/WX    TMP DP  RH WIND       PRES   REMARKS
ALBUQUERQUE    PTCLDY    75  47  36 SE5       30.28R
EL PASO        MOCLDY    80  53  39 NW5       30.17S
$$


........................KEY........................
SKY/WX - SKY CONDITION/WEATHER
TMP    - TEMPERATURE IN FAHRENHEIT
DP     - DEW POINT IN FAHRENHEIT
RH     - RELATIVE HUMIDITY IN PERCENT
WIND   - DIRECTION AND SPEED IN MILES PER HOUR (MPH)
VRB    - VARIABLE WIND DIRECTION
PRES   - MEAN SEA LEVEL PRESSURE IN INCHES OF MERCURY
         F - FALLING PRESSURE   R - RISING PRESSURE
         S - STEADY PRESSURE
VSB    - VISIBILITY IN MILES
HX     - HEAT INDEX IN FAHRENHEIT
WCI    - WIND CHILL INDEX IN FAHRENHEIT
TC     - TEMPERATURE IN CELSIUS WHICH IS ALSO KNOWN AS
         TEMPERATURE IN CENTIGRADE
AFB    - AIR FORCE BASE
         LUKE AFB IS LUKE AIR FORCE BASE
         DAVIS-MONTHAN IS DAVIS-MONTHAN AIR FORCE BASE
NAS    - NAVAL AIR STATION
         EL CENTRO NAS IS EL CENTRO NAVAL AIR STATION
N/A    - NOT AVAILABLE




USA.gov is the U.S. government's official web portal to all federal, state and local government web resources and services.